ARIANE 5 DEB (SYLDA), 44037

Orbit data source: Space-Track

ARIANE 5 DEB (SYLDA), 44037 is space debris in HEO originally from a launch on Tue, 05 Feb 2019 UTC launched from the French Guiana (FRGUI). Debris objects in space refer to the collection of defunct objects orbiting the Earth. Examples of debris include non-operational satellites, rocket bodies, and fragments generated from explosions, collisions, or faulty payload assembly.

Loading next visibility...
Identifier
44037, 2019-007D
Orbit
HEO
Country
Flag of FRFR
Related business
Manufacturer
ADS/Bremen
Mission
Spacecraft
Bus & Motor
SYLDA 5, Unknown motor
Mass
440 kg wet, 440 kg dry
Launch date (UTC)
2019-02-05 (7 years ago)
Launch vehicle
Unknown
Launch site
French Guiana (FRGUI)
Object type
Payload
Rocket body
Debris
Shape & HBR
Cyl, 2.8 m
Radar Cross Section
27.391 m², Large (>1 m²)

Expand to show TLE details & history
Last TLE update: 3 days ago

TLE from 3 days ago
0 ARIANE 5 DEB (SYLDA)
1 44037U 19007D   26170.99671434  .00001464  00000-0  81755-3 0  9998
2 44037   2.5405 193.8723 7123179 326.6987   4.0968  2.46148142 63109
Epoch: 2026-06-19T23:55Z
TLE epoch observation values (Epoch: 2026-06-19T23:55:16.118Z)
Latitude
0.00001°
Longitude
-72.73238°
Altitude
806.467 km
Speed
9.682 km/s
True Right ascension
12h 57m 12s
True Declination
0° 00' 00"
Sunlit
Object was in daylight at epoch
Visualization orbit readout
Latitude
Unknown
Longitude
Unknown
Altitude
Unknown
Speed
Unknown
Apparent Right ascension
Unknown
Apparent Declination
Unknown
Sunlit
N/A
Visualization observer readout
Local Sidereal Time
00:50:17
Azimuth
Unknown
Elevation
Unknown
Doppler factor
Unknown
Orbital elements
Apogee altitude
33,306.725 km
Perigee altitude
289.214 km
Semi-major axis
23,176.107 km
Eccentricity
0.71232
Inclination
2.5405°
RAAN
193.8723°
Arg. of periapsis
326.6987°
True anomaly
33.13326°
Mean anomaly
4.0968°
Eccentric anomaly
13.90383°
Mean motion
0.61515 °/min
Orbital period
585.22 mins
BSTAR
0.00081755
Loading maneuver chart data...
Computing Atmospheric mass density...
Loading historical data...
Loading historical data...
Loading historical data...
Loading historical data...
Loading historical data...
Loading historical data...
Loading historical data...
Other satellites on launch #7 in the year 2019 (2019-02-05 UTC)

Documentation

Showing up to 5 results
|